Location: Unspecified
(0.0000°N, 0.0000°E)
Time: 09:16:14
(UTC+00:00)

CZ-4C DEB - Pass Details

Date: 16 March 2026
Orbit: 805 x 1381 km, 63.4° (Epoch: 18 April)

Event Time Altitude Azimuth Distance (km) Brightness Sun altitude
Rises 20:59:34 0° 295° (WNW) 4,345 ? -42.7°
Reaches altitude 10° 21:04:34 10° 269° (W) 3,430 ? -44.0°
Maximum altitude 21:08:00 13° 245° (WSW) 3,221 ? -44.8°
Drops below altitude 10° 21:11:27 10° 221° (SW) 3,446 ? -45.7°
Sets 21:16:35 0° 195° (SSW) 4,383 ? -47.0°
